Wind_Speed
21 22 23 23 22 21 20 19 19 20 21 22 22 23 24 24 25 26 27 28 28 27 26 25 24 23 21 19 18 18 18 18 19 21 22 22 22 22 21 21 21 20 19 19 19 19 19 19 18 17 17 16 16 15 15 15 14 13 12 12 11 11 10 10 9 9 9 9 9 8 8 9 9 9 9 8 9 9 10 10 9 7 5 4 3 2
20 21 22 22 23 23 22 22 21 21 21 21 21 21 22 22 23 23 23 24 25 25 25 24 23 21 20 18 17 16 16 16 17 19 19 20 20 20 19 19 19 19 19 19 19 19 19 18 18 17 17 16 16 15 15 14 14 13 13 12 11 11 10 10 9 9 9 9 9 9 9 9 10 9 9 8 8 8 8 8 8 6 5 3 2 2
20 20 20 21 21 21 21 22 22 22 22 22 22 22 22 21 21 21 20 20 21 22 22 22 21 20 19 17 16 15 14 15 15 16 17 18 18 18 18 17 17 18 18 18 18 18 18 18 17 17 16 16 15 15 15 14 14 14 13 12 12 11 10 10 10 10 10 10 10 10 10 10 10 10 9 9 8 7 7 7 7 5 4 3 2 2
21 21 21 20 19 19 20 21 22 21 22 22 22 22 22 21 21 20 20 19 19 20 19 19 19 18 17 16 15 14 14 14 15 15 16 16 16 17 17 17 17 17 18 18 18 18 18 17 17 17 16 16 15 15 15 15 15 15 14 13 13 12 12 12 12 12 11 11 10 10 10 10 11 11 10 10 9 8 7 7 6 5 4 2 2 2
21 22 23 22 19 18 19 20 21 21 21 21 21 21 21 21 21 20 20 19 19 19 18 17 17 17 16 16 15 14 14 14 15 15 16 16 16 17 17 17 17 18 18 18 18 18 18 18 17 17 17 16 16 16 16 16 17 16 16 16 15 14 14 13 13 12 11 10 9 9 10 11 11 11 11 10 10 8 7 7 6 5 4 2 2 1
20 22 24 23 21 19 20 20 20 20 20 20 20 20 20 20 20 20 19 19 19 19 18 17 16 16 15 15 15 15 15 15 15 15 16 16 17 17 18 18 18 19 19 19 19 19 19 19 18 18 18 18 18 18 18 18 18 18 18 17 16 15 15 14 13 12 10 9 9 9 10 11 11 11 11 11 10 9 8 7 6 6 5 3 2 2
19 21 23 23 22 21 21 22 22 22 21 21 20 20 19 19 19 19 19 19 19 19 19 18 17 16 16 15 15 15 15 15 15 15 16 16 17 17 18 19 19 19 19 19 19 19 19 19 19 18 18 18 19 19 19 19 19 18 17 17 16 15 14 13 12 11 10 9 9 10 10 10 10 11 11 11 11 10 9 7 6 6 5 4 3 2
19 20 22 21 21 21 21 22 23 24 24 23 22 21 20 19 19 19 19 19 19 19 19 19 18 18 17 17 17 16 16 16 16 16 16 16 17 17 18 18 18 18 18 18 18 18 18 19 19 19 19 19 19 19 19 19 18 18 17 16 15 14 13 13 12 11 10 10 10 10 10 10 10 10 11 11 11 10 9 8 7 6 6 5 4 3
20 20 21 21 22 21 20 21 22 24 24 24 24 23 22 21 20 20 20 20 20 20 20 20 20 19 18 18 18 18 18 18 17 17 17 17 17 17 17 17 17 17 17 18 18 18 18 18 18 18 19 19 19 19 19 18 18 17 16 15 15 14 13 13 12 11 11 11 11 11 11 11 11 10 10 10 10 10 9 9 8 7 7 6 5 4
21 21 20 21 22 22 21 20 21 23 23 23 24 24 23 23 22 21 20 20 20 21 21 21 22 21 20 19 19 19 19 18 18 17 17 17 17 17 17 17 17 17 17 17 17 17 17 17 18 18 18 18 19 19 18 18 17 17 16 15 15 14 14 13 12 12 11 11 11 10 10 10 10 9 9 9 8 8 8 8 8 8 8 7 6 5
19 20 19 18 18 19 19 20 21 23 22 22 21 22 22 23 23 22 21 20 21 22 22 23 23 23 23 22 21 21 20 20 19 18 17 17 17 17 17 17 17 16 16 16 16 17 17 17 17 17 18 18 18 18 18 17 17 16 16 15 15 14 14 13 12 12 11 11 10 10 9 9 8 8 8 7 7 7 7 7 7 7 7 7 7 6
19 19 18 18 17 16 17 18 20 22 22 21 19 17 19 22 24 24 22 21 21 23 23 24 24 24 24 24 23 22 22 21 20 20 19 18 18 18 18 17 17 16 16 16 16 16 16 17 17 17 17 18 18 18 18 17 16 16 15 15 15 14 14 13 12 12 11 11 10 10 9 8 8 7 7 6 6 5 5 5 5 5 5 6 6 6
19 19 18 18 18 18 18 18 19 20 20 21 20 19 20 23 25 24 23 22 22 23 24 24 24 23 24 24 24 24 23 22 22 21 20 20 20 20 20 20 19 18 18 17 17 17 17 16 17 17 17 18 18 18 17 17 16 16 15 15 15 14 14 13 12 12 11 11 10 10 9 8 8 7 7 6 5 5 4 4 3 3 3 4 5 5
18 18 17 17 17 18 19 21 21 21 21 22 23 23 23 24 25 24 21 20 21 22 23 22 22 23 23 24 24 24 24 23 22 22 21 21 21 21 21 21 21 20 20 20 19 19 18 18 17 18 18 18 18 18 17 17 16 16 15 15 14 14 14 13 12 12 11 11 10 9 9 8 8 7 6 6 5 5 4 4 4 4 4 4 4 4
18 18 17 17 17 19 20 22 23 23 24 24 23 21 20 21 23 22 19 18 19 20 20 20 20 21 22 23 24 25 24 24 24 23 23 22 22 22 22 22 21 21 21 21 21 21 20 20 19 19 19 19 19 18 17 17 16 16 16 15 15 14 13 13 12 12 11 11 10 9 9 8 8 7 6 6 5 5 5 4 4 4 4 4 4 4
19 19 18 18 19 20 22 23 24 24 24 24 22 20 19 20 22 22 20 19 19 20 19 17 16 16 19 23 26 26 26 26 26 25 25 24 24 23 22 22 23 23 23 22 22 21 21 20 20 20 20 19 19 18 18 17 17 16 16 15 15 14 14 13 12 12 11 11 10 9 9 8 8 7 7 6 6 5 5 5 5 5 5 5 4 4
19 19 19 19 19 20 22 24 24 23 23 23 23 23 23 24 24 23 21 19 19 19 18 18 15 12 13 20 26 28 28 28 27 27 27 26 26 25 24 24 24 24 24 23 23 22 21 21 20 20 20 19 18 18 17 17 16 16 16 16 15 15 14 13 12 12 11 11 10 9 9 8 8 7 7 6 6 5 5 5 5 5 5 5 5 5
19 19 19 19 19 20 22 23 23 23 24 24 24 24 24 24 24 23 22 20 20 19 19 19 17 14 12 13 22 31 31 30 29 27 27 27 27 27 26 25 25 25 24 24 23 22 21 21 20 20 20 19 18 18 17 17 16 16 16 16 16 15 14 13 13 12 11 11 10 9 9 8 8 7 7 6 6 5 5 5 5 5 5 5 5 5
19 20 20 19 19 20 22 24 25 25 25 26 26 25 23 23 23 23 22 22 22 22 21 20 19 18 17 15 22 32 34 32 30 27 26 27 28 28 27 26 26 25 25 24 23 22 21 21 20 20 19 18 18 17 17 17 16 16 16 16 16 15 15 14 13 12 11 11 10 9 9 8 8 7 7 6 6 5 5 5 5 5 5 5 5 5
20 21 21 21 21 21 22 25 28 29 29 29 29 28 25 24 23 24 23 22 22 22 22 21 21 20 19 18 22 29 34 34 30 27 26 26 27 28 28 27 27 26 26 25 24 22 22 21 21 20 19 19 18 18 17 17 17 16 16 16 16 16 15 14 13 13 12 11 10 9 9 9 8 8 7 6 6 6 5 5 5 5 5 5 5 5
21 21 23 24 23 22 23 27 30 31 32 31 31 29 27 25 24 24 24 24 23 23 22 21 21 21 21 19 19 25 32 34 31 26 23 23 25 27 29 28 28 27 27 26 24 22 22 21 21 21 20 19 19 18 17 17 17 16 16 16 16 16 15 14 14 13 12 11 10 9 9 9 8 8 7 7 6 6 6 6 5 5 5 5 6 6
24 24 25 26 26 26 26 29 31 31 32 32 31 30 28 27 26 25 26 26 25 24 23 22 22 21 21 20 19 22 28 33 32 27 22 19 21 26 29 29 28 28 27 26 24 22 22 22 21 21 20 20 19 18 17 17 16 16 16 16 16 16 15 14 14 13 12 11 10 10 9 9 9 8 7 7 7 6 6 6 6 6 5 6 6 6
25 26 26 27 27 28 27 28 29 30 31 32 34 34 32 31 30 30 29 29 27 25 24 23 22 21 20 19 18 19 23 29 32 30 24 17 18 24 30 30 29 28 28 26 24 22 22 22 22 21 21 20 19 18 17 17 16 16 16 16 16 15 15 14 14 13 13 12 11 10 10 9 9 8 8 7 7 7 7 6 6 6 6 6 7 7
25 25 25 26 27 27 27 27 28 29 30 32 33 33 32 31 30 29 29 28 26 24 22 22 20 18 18 18 17 18 20 25 29 30 25 20 19 23 28 30 30 29 29 27 24 22 22 22 22 21 21 20 20 18 17 16 16 16 15 15 15 15 15 14 14 14 13 13 12 11 10 10 9 9 8 8 7 7 7 6 6 6 6 7 7 7
24 24 24 25 25 26 26 27 27 28 29 30 31 30 29 26 25 24 23 24 23 21 19 18 16 15 16 17 18 19 20 22 27 29 26 20 19 21 25 29 30 30 29 27 24 22 22 22 22 21 21 21 20 18 17 16 16 15 15 15 15 15 15 14 14 14 14 13 12 12 11 10 9 9 8 8 7 7 7 6 7 7 7 7 7 8
24 24 23 23 23 24 25 26 26 26 27 28 29 28 27 24 22 20 19 20 20 20 18 16 15 16 16 17 18 20 21 23 26 28 26 21 18 18 22 26 29 30 29 26 24 22 22 22 22 22 21 21 20 19 17 16 15 15 15 15 15 14 14 14 15 15 14 14 13 12 11 10 9 9 8 8 7 7 7 7 7 7 7 7 8 9
22 23 23 22 22 22 23 24 25 25 25 26 27 28 27 24 22 20 19 20 22 22 19 16 14 14 15 16 17 20 22 24 27 28 27 22 17 16 20 24 27 28 28 26 23 22 22 22 22 21 21 20 19 18 18 16 16 15 15 15 14 14 14 14 15 15 15 15 14 13 12 10 9 8 8 8 7 7 7 7 7 7 7 7 9 10
20 21 22 21 21 21 21 22 23 24 24 25 26 27 27 26 23 21 21 23 24 23 20 17 15 13 14 14 16 18 22 25 27 28 27 22 15 14 19 23 26 27 26 24 22 22 21 21 21 21 20 20 19 18 17 16 16 15 15 15 14 14 14 14 14 15 15 15 14 13 12 10 9 8 8 7 7 7 7 7 7 7 7 9 10 11
17 19 20 20 19 19 19 20 21 22 23 23 24 26 27 27 25 24 24 25 24 22 19 18 17 15 14 14 15 17 20 25 27 28 27 22 15 13 18 22 25 27 25 21 19 18 19 20 20 20 20 19 18 18 17 16 16 16 15 15 14 14 14 14 14 15 15 15 15 13 12 10 9 8 7 7 7 7 7 7 7 8 9 10 11 12
15 16 17 17 17 17 17 18 19 20 21 22 23 25 26 27 27 26 25 25 24 22 19 18 17 16 14 12 11 11 15 23 27 28 28 23 17 14 17 21 24 26 24 19 13 10 13 18 20 21 20 19 19 18 17 17 16 16 15 15 15 14 14 14 14 15 15 15 15 13 11 10 9 8 8 7 7 7 7 7 7 8 10 11 12 12
14 14 15 15 15 15 16 17 18 19 20 21 22 24 25 26 26 25 24 25 25 23 20 18 17 17 16 12 8 5 9 21 28 29 30 26 20 17 18 20 23 25 24 19 12 6 5 11 18 21 21 20 19 18 18 17 16 16 16 16 15 15 15 14 15 15 15 15 14 13 11 10 9 8 8 8 8 8 8 8 8 9 11 11 12 12
13 14 14 14 14 14 15 16 17 18 19 20 22 23 24 25 25 25 24 25 25 24 21 19 18 18 18 15 11 8 9 19 26 30 31 27 22 19 19 21 23 24 24 22 14 7 3 6 12 18 21 21 20 19 18 17 16 16 16 16 16 16 16 15 15 16 16 16 15 13 12 10 10 9 9 9 9 9 9 9 9 10 11 11 11 11
13 13 13 13 13 14 15 16 17 18 19 20 21 22 23 24 24 24 24 24 24 23 22 20 19 19 19 18 16 14 12 16 22 28 31 28 23 20 19 20 22 24 25 23 16 9 4 4 6 11 17 21 21 20 19 17 17 16 16 16 16 17 16 16 17 17 18 17 16 15 13 12 11 10 10 10 10 10 10 10 10 10 11 11 11 11
13 13 14 14 14 15 15 16 17 18 19 20 21 21 22 22 23 23 23 22 22 22 22 21 21 20 19 18 16 15 13 14 19 25 30 30 26 21 21 21 23 25 25 23 18 11 4 4 4 5 10 18 21 20 19 18 17 16 15 15 15 16 17 18 18 19 19 18 17 15 14 13 12 11 11 11 11 11 11 10 10 10 9 9 10 10
14 14 15 15 16 16 16 16 17 18 18 19 20 20 20 21 21 21 21 21 20 20 21 21 21 21 21 20 18 16 14 14 17 21 27 31 28 23 22 22 24 25 25 24 20 13 6 6 6 6 7 12 16 18 18 18 17 16 15 14 14 15 16 17 18 19 18 17 16 15 14 13 12 11 11 11 11 10 10 10 10 9 9 8 9 10
14 15 15 16 16 16 16 16 17 17 18 18 19 19 19 20 20 20 20 19 19 19 19 20 20 20 20 20 19 18 16 15 15 18 24 29 29 25 22 23 24 25 24 24 21 16 10 8 8 9 9 9 10 13 16 17 16 15 15 14 14 14 15 16 17 17 17 16 16 15 13 12 11 11 10 10 10 10 10 10 10 9 9 9 9 10
15 15 15 16 16 16 16 17 17 17 18 18 18 18 18 18 19 19 18 18 17 18 19 19 19 19 18 18 17 16 15 13 12 14 20 25 27 26 23 23 24 25 25 24 22 19 14 11 10 11 10 8 6 8 12 16 16 15 15 14 14 15 15 16 16 16 16 16 15 14 13 12 11 11 10 10 10 10 10 10 10 10 10 9 9 10
14 15 15 16 16 16 17 17 17 18 18 18 18 18 18 18 17 17 17 17 17 17 18 19 19 18 17 16 15 14 12 10 8 9 14 20 25 26 24 22 22 23 23 23 23 21 17 13 11 10 9 7 6 8 11 15 17 16 16 15 15 15 15 16 16 16 16 15 15 14 13 12 12 11 10 10 10 10 10 10 10 10 10 10 10 10
14 15 15 16 16 16 17 17 17 18 18 18 18 17 17 17 17 16 16 16 16 17 18 18 18 18 17 16 15 13 11 9 7 6 8 14 19 23 23 21 20 21 21 21 21 20 19 16 14 12 10 7 7 8 11 13 15 16 16 15 15 15 15 15 16 16 16 15 15 14 13 12 12 11 10 10 10 10 10 10 10 10 10 10 11 11
15 16 16 16 16 17 17 18 18 18 18 18 17 17 16 16 16 16 15 15 15 16 16 17 17 17 16 15 14 13 12 10 8 7 8 11 15 19 21 22 21 19 20 19 20 20 19 18 17 16 13 9 8 10 12 13 14 15 15 15 15 15 15 15 16 16 15 15 14 14 13 12 12 11 11 11 11 11 10 10 10 10 10 10 11 11
16 16 16 16 17 17 17 18 18 18 17 17 16 16 15 15 15 15 15 15 15 15 15 15 15 14 14 13 12 12 12 11 11 10 11 12 15 18 20 22 21 19 18 18 19 20 20 19 18 17 15 11 10 10 12 13 13 14 15 15 15 15 15 15 15 15 15 15 14 14 13 13 12 12 12 11 11 11 11 10 10 10 11 11 11 12
16 16 16 16 17 17 17 17 17 17 16 16 15 15 15 15 15 15 15 15 14 14 14 14 13 13 12 11 11 12 12 12 12 12 13 14 17 19 21 22 20 18 16 17 18 19 19 19 18 17 15 13 11 10 11 13 13 13 14 14 14 13 12 13 15 15 14 14 14 14 13 13 13 12 12 12 11 11 11 11 11 11 11 11 12 12
15 16 17 17 18 18 18 17 17 16 16 15 15 14 14 15 15 15 15 15 14 14 14 14 13 13 12 12 12 12 12 12 12 13 13 15 17 19 20 21 20 17 15 16 17 18 18 18 17 17 15 14 13 12 11 13 13 13 14 14 14 11 6 10 13 14 14 15 14 14 14 13 13 13 12 12 12 12 11 11 11 11 11 12 12 12
14 15 16 17 18 19 18 18 17 17 16 16 15 15 15 15 15 15 15 15 15 15 15 14 14 13 12 13 13 13 13 13 13 14 14 15 16 17 18 18 17 16 14 14 15 17 17 17 17 16 15 14 14 14 14 14 14 14 14 14 15 14 11 9 10 12 13 14 14 14 13 13 13 13 13 13 13 12 12 12 11 11 11 11 11 11
14 15 16 17 18 18 18 19 19 18 18 17 17 16 16 16 16 16 16 16 16 16 16 15 14 13 13 13 14 14 14 14 14 14 15 15 16 16 16 16 15 14 14 13 13 14 15 16 16 15 15 15 15 15 15 15 15 15 15 15 15 15 15 13 12 12 12 13 13 13 13 13 13 13 13 13 13 13 12 12 11 11 11 11 11 11
14 15 16 18 18 19 20 20 20 19 19 19 19 19 18 18 17 17 16 16 17 17 16 16 15 14 14 15 15 15 15 15 15 16 16 16 16 16 16 15 15 14 14 14 14 14 14 14 14 14 14 15 15 16 16 17 17 17 16 16 16 16 17 17 16 15 15 14 14 14 13 13 14 14 14 14 14 13 13 12 11 11 11 10 10 11
16 16 17 18 19 19 20 20 20 20 20 20 20 20 20 19 19 18 18 17 17 17 17 16 15 15 16 16 16 16 17 17 17 17 17 17 17 16 16 16 15 15 15 15 15 15 15 15 14 14 14 15 16 17 18 18 18 18 17 17 17 17 18 18 18 17 17 16 16 15 15 15 15 15 15 15 14 13 13 12 11 11 10 10 10 11
17 17 18 18 19 19 19 20 20 20 20 19 19 20 20 20 20 19 19 18 18 18 18 17 17 17 17 17 17 17 17 18 18 18 18 18 17 17 16 16 16 16 16 16 15 15 15 16 16 16 16 16 16 17 18 19 18 18 18 17 17 18 19 19 18 17 17 16 16 16 15 15 15 15 15 14 14 13 13 12 11 10 10 10 10 11
18 18 18 19 19 19 19 19 20 20 20 19 19 19 19 20 19 19 19 19 19 19 19 19 19 19 18 18 18 17 17 18 18 19 19 19 18 17 17 17 16 16 16 16 15 15 15 16 16 17 17 18 18 18 19 19 19 18 18 18 18 19 19 19 18 17 16 15 15 15 15 15 15 15 15 14 14 14 13 12 11 10 10 10 10 11
18 18 18 19 19 19 19 20 20 20 19 19 18 18 19 19 19 18 18 18 18 19 19 20 20 19 19 19 18 18 18 18 18 19 19 19 19 18 18 17 17 16 16 15 15 15 14 15 17 19 19 19 19 19 20 20 20 19 19 19 19 20 20 19 18 17 16 15 15 15 15 15 15 15 15 14 14 14 14 13 12 10 10 10 10 10
18 18 19 19 19 20 20 20 20 20 19 18 18 18 18 18 18 18 18 18 18 18 18 18 19 19 18 18 19 19 19 18 19 19 19 20 20 19 19 19 18 17 16 14 12 11 9 9 11 15 19 21 21 21 21 21 21 20 20 20 20 20 20 19 18 17 16 15 15 15 15 15 15 15 14 14 14 14 14 14 12 11 10 10 10 11
Wind_Direction
176 175 176 179 179 178 179 179 175 169 164 161 160 160 161 161 161 161 164 167 169 171 172 172 172 171 170 171 173 175 179 184 188 193 197 199 200 200 200 200 200 200 201 201 203 203 204 203 203 202 200 198 196 196 195 194 193 192 189 187 184 182 180 176 171 166 162 161 162 164 164 162 158 153 149 147 148 151 152 148 142 133 125 120 124 133
178 175 173 175 175 175 175 178 179 176 173 171 170 169 169 167 165 165 165 167 169 170 171 171 170 169 168 168 171 174 179 184 188 192 196 198 199 199 199 199 199 200 200 200 201 201 201 200 199 197 196 194 192 191 191 190 188 187 185 184 182 181 178 173 170 167 166 168 171 173 170 166 159 153 148 145 146 148 151 150 145 138 129 125 129 139
177 176 175 175 174 173 171 173 175 176 174 173 174 175 174 172 169 167 166 165 167 169 172 172 172 171 170 169 170 173 177 182 186 189 191 193 194 195 195 196 196 196 196 196 195 194 194 193 192 191 190 189 188 187 186 185 184 184 183 183 181 179 176 173 172 172 175 178 181 181 177 170 163 157 153 151 149 151 154 155 153 147 137 135 141 148
176 177 179 178 176 175 173 170 170 171 172 172 172 174 174 171 169 168 168 167 167 168 171 174 175 175 174 173 173 174 177 180 183 185 187 189 191 191 192 191 191 190 189 187 186 186 186 185 185 186 186 185 185 183 183 183 183 183 183 182 181 181 179 179 180 183 186 188 189 187 182 176 169 165 162 160 157 156 157 160 159 156 148 146 150 161
175 178 181 180 179 179 179 173 169 168 169 169 170 170 171 170 168 168 169 169 168 167 168 172 175 177 177 177 176 176 179 181 183 184 186 187 189 189 189 188 187 185 183 181 181 181 181 181 182 183 184 184 183 183 183 184 185 185 185 185 185 185 186 188 190 193 196 196 194 190 186 182 178 174 171 168 164 161 161 164 164 163 159 158 163 172
175 178 181 180 181 182 184 180 175 172 170 169 169 170 171 170 169 168 167 168 167 166 165 167 170 173 175 175 176 177 179 182 185 186 187 188 188 188 188 187 186 184 182 181 181 181 182 183 183 184 185 185 186 186 187 188 189 190 190 191 192 193 195 197 200 201 201 199 194 190 187 186 184 181 178 174 171 167 167 168 170 171 171 171 175 188
172 175 177 177 179 182 183 182 182 180 176 173 173 174 174 174 173 171 169 169 168 167 165 165 166 167 168 169 170 172 176 180 184 187 189 189 189 189 188 188 188 187 186 185 186 186 187 188 188 188 189 190 191 192 193 195 196 197 198 199 200 201 203 206 207 207 205 199 192 187 185 184 184 183 182 180 177 174 172 172 175 178 181 181 185 195
165 170 172 173 175 177 179 181 183 184 183 179 176 175 175 176 176 174 174 174 173 171 169 168 168 167 166 165 166 168 173 176 180 183 186 188 189 190 191 192 192 192 191 191 192 192 193 194 194 195 195 196 197 199 201 202 204 205 206 207 208 209 210 212 212 210 205 197 189 184 181 180 180 181 182 182 181 180 177 177 179 183 188 190 193 199
162 165 170 173 172 171 172 178 181 184 184 183 179 175 173 172 173 174 174 175 176 177 176 174 173 172 172 171 169 171 175 178 180 182 185 187 189 191 193 194 196 196 197 197 197 198 198 199 200 200 201 203 204 206 208 209 211 211 211 212 212 212 212 212 211 208 203 196 189 184 181 179 178 179 181 182 183 184 184 184 185 188 191 194 197 204
164 165 168 173 174 173 171 173 179 182 183 183 182 180 177 172 170 169 170 173 176 179 182 181 179 177 177 177 177 177 180 183 186 188 189 191 192 194 195 196 198 199 200 200 201 201 201 202 202 204 205 207 208 210 212 213 213 213 212 211 211 210 210 209 208 205 202 197 192 187 184 182 182 181 183 184 186 189 190 192 193 194 195 196 199 204
164 166 167 169 173 175 174 174 176 178 180 180 180 181 182 179 175 171 169 172 176 179 182 185 184 181 178 179 180 182 184 186 188 191 193 194 196 197 198 200 201 201 201 202 202 202 202 202 203 204 206 208 210 211 213 213 213 212 211 210 208 207 206 205 204 202 200 197 194 192 190 189 189 189 190 192 194 195 196 197 198 198 199 199 200 202
164 167 167 168 169 171 173 174 174 175 176 175 175 178 184 186 184 181 177 176 177 179 181 183 185 184 182 181 181 183 186 188 189 191 192 195 197 199 199 200 201 201 201 201 202 202 202 202 203 204 206 207 209 211 212 213 212 211 209 208 206 205 204 203 201 200 199 197 196 195 195 195 196 197 199 201 202 203 203 204 203 203 202 201 201 204
165 167 168 168 169 170 171 171 171 174 177 179 181 184 188 189 188 186 184 182 182 182 182 181 182 184 185 185 184 185 188 191 194 195 195 197 198 200 201 201 201 201 201 201 202 202 202 202 203 204 206 207 208 210 211 211 210 209 208 207 205 204 203 202 201 200 199 197 197 197 197 198 199 201 202 205 207 211 215 218 222 224 220 215 210 210
164 165 166 168 172 175 175 174 175 179 186 190 193 193 192 189 186 184 183 183 185 185 183 182 182 184 186 187 188 189 192 194 197 199 201 202 204 205 205 206 206 205 205 204 204 204 203 203 203 205 207 208 208 209 210 210 209 208 207 207 206 205 203 202 201 200 199 198 198 198 198 200 201 202 204 208 212 218 226 233 240 245 247 243 235 228
164 166 168 173 178 181 183 183 184 187 192 195 196 194 190 186 184 182 180 179 181 183 183 184 186 188 189 190 191 193 196 199 199 200 203 206 208 210 210 210 211 211 211 209 208 207 207 205 205 206 207 208 209 209 209 209 209 208 207 207 206 206 205 204 203 202 201 200 199 199 200 200 202 204 206 211 216 223 230 239 245 249 251 252 250 247
171 171 174 179 183 186 188 189 190 192 194 194 193 190 186 183 184 184 182 179 177 176 177 180 186 194 199 197 195 196 199 201 202 202 203 205 208 210 211 212 212 213 214 213 212 211 210 210 209 209 209 209 209 209 209 209 208 207 207 207 207 207 207 206 205 204 203 202 202 202 202 203 204 206 209 214 219 226 234 240 245 248 250 252 252 253
177 179 181 183 186 189 191 192 192 193 192 191 191 190 189 187 186 186 183 179 175 175 179 181 185 194 207 207 203 199 199 200 202 203 204 205 206 209 210 211 213 214 215 215 215 214 213 213 212 212 211 211 210 210 210 210 208 207 207 207 208 209 209 209 208 207 206 206 205 205 205 206 207 209 211 216 223 230 236 242 246 249 250 251 254 256
183 185 187 187 189 190 190 191 192 193 191 190 190 192 192 192 190 187 185 182 180 181 185 189 193 197 200 207 208 205 200 200 201 203 204 206 208 209 210 212 215 217 218 218 217 216 215 215 214 214 213 212 211 211 211 210 209 208 207 207 208 209 210 210 210 210 210 209 209 209 209 210 210 212 214 219 225 232 239 243 247 249 251 253 256 258
188 190 190 191 191 191 190 191 191 191 191 190 190 189 189 191 190 189 189 189 189 189 191 195 200 204 205 207 208 206 202 201 201 202 204 207 209 210 211 213 216 218 220 219 218 216 215 215 215 215 214 213 212 211 211 211 210 209 208 208 208 209 210 211 212 213 213 213 212 212 213 213 213 214 217 222 228 235 241 245 248 251 253 256 259 262
191 193 194 193 191 190 191 194 195 194 194 193 191 189 187 188 190 191 193 194 195 196 197 199 204 209 210 211 211 209 204 201 200 202 206 209 211 211 212 214 216 219 220 220 217 215 214 214 214 213 213 212 211 210 210 210 209 208 208 208 208 209 210 211 213 214 215 216 216 217 216 216 215 216 219 224 230 236 242 246 249 252 256 260 263 266
194 198 199 198 194 192 195 198 200 199 197 195 192 189 188 189 190 193 195 197 198 200 202 205 209 212 212 213 214 212 207 201 199 201 206 211 213 213 213 215 217 219 220 219 216 214 213 213 213 212 210 209 209 208 209 209 208 208 207 207 208 209 210 212 214 216 218 219 219 219 219 218 217 219 221 227 232 237 241 245 249 253 258 263 268 271
201 202 204 204 202 201 203 204 204 202 200 197 193 191 191 191 193 195 198 199 200 202 205 209 213 214 214 215 217 217 211 205 201 200 203 209 215 217 215 215 217 220 221 219 216 213 212 212 212 211 209 208 207 207 207 207 207 206 206 206 208 209 211 213 215 217 220 222 222 222 220 219 218 220 224 229 234 238 241 244 249 254 261 266 272 275
211 210 210 211 211 211 213 212 209 206 204 203 201 200 201 200 199 200 201 201 203 205 207 209 211 213 213 214 216 217 214 210 206 204 202 206 216 219 216 215 216 219 221 219 215 211 211 212 211 210 208 207 206 206 205 205 205 205 206 207 208 210 213 215 217 220 222 223 224 223 221 219 220 222 226 231 235 239 242 246 250 257 263 270 274 278
218 219 219 219 218 219 219 218 215 211 209 209 209 210 210 209 208 207 207 205 205 205 206 207 209 211 212 212 212 213 212 210 208 206 204 208 215 218 217 215 214 216 219 218 214 211 210 211 210 208 207 206 205 205 204 204 204 205 207 209 210 212 214 217 219 220 222 224 225 224 221 220 221 223 228 233 236 239 243 247 253 260 266 273 277 280
222 223 225 226 226 225 224 224 222 219 215 213 212 211 210 209 208 207 207 205 203 202 202 204 205 208 210 210 210 209 209 207 206 205 205 210 216 219 218 215 213 213 216 216 213 210 209 209 209 207 206 206 205 204 203 204 205 207 209 211 214 216 218 219 220 220 221 223 224 223 221 220 221 224 229 233 237 240 244 249 256 263 270 275 279 280
226 226 228 230 230 229 228 227 227 225 221 217 213 209 205 203 201 200 198 197 197 196 195 196 201 206 208 208 207 207 207 205 205 205 205 209 212 215 217 215 213 212 213 213 210 208 207 208 208 207 206 206 205 203 202 203 206 209 211 214 217 219 221 221 219 219 220 222 223 222 220 220 222 226 231 234 237 240 244 250 258 265 272 276 277 276
228 228 229 230 231 230 229 229 228 226 224 220 215 210 205 201 197 194 192 194 195 193 189 192 200 207 208 208 208 208 207 205 204 205 206 208 210 212 213 212 211 210 210 210 207 206 206 207 208 208 207 207 206 204 202 203 206 210 214 217 220 222 224 222 219 217 217 220 222 221 219 220 223 228 233 236 238 240 244 251 259 266 270 270 271 272
229 229 230 231 231 231 231 230 228 226 224 220 216 212 208 203 196 191 192 196 196 193 191 194 198 202 205 208 209 209 209 206 205 204 204 206 210 213 210 209 207 206 206 206 205 205 207 209 211 211 210 209 208 207 205 205 206 211 215 219 223 225 225 222 217 215 215 218 219 219 218 220 224 231 236 238 239 241 245 250 256 261 263 264 266 269
228 229 230 231 231 231 230 229 227 225 223 220 216 213 212 208 203 200 201 201 197 193 193 197 200 201 202 202 204 207 210 208 207 205 203 204 208 214 211 207 204 202 201 200 201 205 209 212 213 213 213 211 210 210 210 209 210 212 215 219 223 225 225 221 216 213 213 216 218 218 218 221 227 233 237 239 239 241 243 247 251 255 259 262 265 269
225 226 227 228 228 228 227 225 223 221 219 217 215 214 213 214 211 209 209 206 199 194 195 198 200 198 192 186 187 201 212 212 209 205 202 201 204 210 208 203 200 199 196 191 187 196 210 215 216 215 214 212 212 212 213 214 215 215 216 218 221 223 223 219 214 211 211 214 216 217 218 223 229 234 236 236 237 238 239 241 247 253 258 262 266 269
221 221 222 222 221 220 220 219 217 215 213 211 211 211 213 214 214 213 212 209 204 199 197 198 198 195 186 177 175 194 214 214 210 205 202 199 201 206 204 197 195 196 195 189 176 163 205 213 217 218 215 213 213 214 215 217 219 220 220 220 220 220 219 216 211 209 209 211 214 217 220 225 230 232 233 233 233 235 236 236 241 250 257 261 265 268
216 216 215 213 211 210 211 211 210 207 205 204 205 208 210 212 212 212 213 212 209 205 201 200 199 197 194 193 196 202 208 213 210 206 202 198 200 205 206 197 191 192 194 194 189 177 175 192 208 215 216 215 215 215 216 219 220 222 223 222 221 219 216 212 208 206 206 209 212 216 220 225 228 229 229 230 232 234 236 236 240 248 256 261 264 267
207 206 204 201 199 200 201 203 203 202 200 200 201 205 208 210 211 211 213 215 214 211 206 203 200 200 201 204 207 210 212 215 212 207 202 198 198 201 205 198 191 190 193 195 197 196 182 172 185 201 210 212 214 215 216 218 220 221 222 223 221 218 214 209 205 204 204 206 210 215 219 223 225 227 229 231 234 236 238 240 243 249 256 262 266 269
194 192 190 189 189 190 193 196 197 197 196 197 199 202 205 208 209 210 212 215 217 216 212 209 205 203 203 205 209 214 218 220 216 210 204 199 197 198 200 196 191 190 191 194 197 200 200 180 163 172 196 204 209 212 214 215 217 219 220 220 219 216 211 208 205 204 205 207 211 215 220 224 226 228 231 234 237 239 242 243 244 247 254 262 268 272
183 181 181 181 182 184 186 188 190 191 191 192 195 198 202 205 207 208 210 213 215 216 215 215 215 214 211 208 208 212 217 222 219 212 206 201 199 198 197 195 193 192 190 193 196 197 193 184 171 161 168 189 200 206 209 211 213 214 215 215 213 210 208 207 206 206 207 210 214 218 222 224 226 228 232 236 238 241 241 242 242 242 246 255 265 272
174 173 175 177 178 178 179 181 183 185 187 189 192 196 200 203 205 206 208 210 213 213 213 215 218 222 223 221 218 216 220 224 223 215 208 204 202 200 197 197 197 195 192 192 194 195 191 183 174 165 159 164 184 199 205 207 208 209 209 208 205 203 203 204 205 207 210 213 216 218 220 221 223 227 231 235 238 239 239 240 240 241 243 249 259 269
167 167 171 173 174 174 174 176 179 182 184 186 190 193 197 200 203 205 207 209 211 211 211 211 214 219 223 227 227 227 228 232 231 221 211 207 205 204 202 202 202 201 197 194 194 196 196 188 177 170 165 161 168 188 198 202 203 204 204 203 201 198 198 201 204 206 210 212 214 214 216 218 221 226 231 236 239 240 241 241 242 243 247 251 259 267
166 167 170 172 173 173 174 175 178 181 184 185 188 191 195 198 201 203 205 207 209 210 210 210 212 214 218 221 223 225 228 235 239 229 215 209 207 207 207 207 206 206 205 203 201 200 197 190 180 176 182 186 185 185 189 195 199 201 202 203 201 200 199 201 204 207 209 210 211 212 214 218 223 228 235 240 244 246 246 247 247 249 252 257 262 268
169 170 171 173 175 176 176 178 179 182 185 187 189 191 194 196 199 201 203 205 207 209 210 210 211 212 214 216 217 218 220 226 232 229 217 212 211 211 212 213 212 211 211 211 211 209 205 201 196 193 194 198 199 195 193 194 197 200 200 202 203 203 203 204 206 208 209 210 212 214 217 222 228 235 242 248 251 252 252 252 253 254 257 262 267 271
175 175 174 176 178 180 182 183 184 186 187 188 190 191 192 194 195 197 199 202 204 206 208 209 210 211 212 213 213 213 213 214 214 212 210 212 214 216 217 218 219 219 216 215 214 214 214 211 211 212 210 205 199 197 196 197 198 198 199 200 204 207 207 207 208 210 212 213 215 219 223 229 236 244 250 254 256 255 253 253 254 257 260 265 270 275
180 179 179 180 183 185 187 188 189 189 189 189 189 189 190 191 190 190 192 195 198 201 206 208 209 210 211 211 212 211 211 209 207 204 204 207 210 214 217 219 220 221 219 216 214 214 216 216 216 216 215 210 203 199 199 200 200 200 201 201 203 206 209 211 213 214 216 219 222 226 231 238 244 250 253 255 255 254 252 251 253 258 263 267 271 276
184 184 184 184 186 188 190 191 190 189 190 190 189 189 190 192 191 190 189 190 192 197 203 206 207 206 204 204 206 209 209 207 204 202 202 204 207 211 214 217 218 219 219 216 213 213 215 217 219 219 217 212 205 200 200 203 205 205 205 204 205 208 214 217 219 221 222 225 229 234 238 242 245 248 249 249 248 248 249 250 253 258 263 269 274 278
190 189 189 189 190 191 192 191 189 189 190 190 190 192 196 198 199 197 196 194 196 199 204 208 208 205 200 197 198 201 202 203 202 200 200 202 205 209 213 216 217 217 216 214 212 212 214 217 220 222 222 221 217 210 205 205 208 209 210 210 207 203 202 213 218 221 223 226 231 234 238 240 241 243 244 244 244 245 248 251 254 258 264 270 275 280
193 192 192 192 193 194 193 192 190 191 191 192 193 196 200 203 204 204 203 202 203 205 206 208 208 205 200 196 194 195 195 197 198 198 199 201 203 207 211 214 216 216 215 214 213 212 214 217 219 221 221 223 223 222 219 217 215 214 214 216 215 212 212 214 217 218 220 224 227 231 234 236 238 240 243 244 245 247 249 252 255 260 265 270 275 280
194 193 193 194 194 194 192 192 193 194 195 196 198 200 202 204 206 206 205 205 206 206 206 206 203 198 193 195 195 194 193 194 196 197 199 200 202 204 207 210 212 213 214 215 216 218 219 221 221 222 222 224 225 226 226 226 225 223 222 223 223 223 224 227 227 225 223 224 226 229 233 236 239 242 245 247 248 249 250 253 256 260 265 270 275 280
196 195 195 196 195 194 193 194 195 195 196 198 200 202 203 204 206 206 207 207 207 206 207 208 204 198 194 196 197 195 193 194 197 199 200 201 202 203 203 205 207 209 211 212 215 218 222 226 227 227 227 227 229 230 231 231 231 231 230 231 231 231 231 233 233 233 233 233 233 235 237 240 243 246 248 249 250 250 251 253 255 259 264 269 274 280
198 197 197 197 196 195 195 196 196 196 197 199 201 202 203 204 204 205 207 209 209 208 207 208 207 205 205 204 202 197 194 194 198 201 202 202 202 203 204 205 207 210 212 213 215 217 220 224 227 229 229 230 231 234 235 236 236 237 237 238 238 238 238 237 237 237 238 239 240 240 241 244 246 248 249 250 251 251 252 253 255 259 264 269 275 281
202 201 199 198 196 195 196 197 198 198 198 200 202 203 204 204 204 204 205 207 208 207 206 205 205 208 211 213 211 207 203 201 202 204 204 204 205 205 207 208 211 214 217 219 221 223 226 228 231 232 233 233 235 237 240 240 240 241 242 243 244 245 245 244 241 240 241 241 241 242 243 245 246 247 248 250 252 253 253 254 256 260 266 273 279 285
207 205 203 200 198 196 196 198 200 200 200 201 202 204 205 205 205 205 206 207 207 206 204 203 204 206 209 212 215 215 212 210 210 210 210 209 209 210 211 213 215 218 222 225 228 231 234 237 239 239 239 238 239 241 244 245 245 245 246 247 248 248 249 249 247 244 243 242 242 242 244 245 246 246 248 251 254 256 256 256 258 262 268 275 281 288
210 208 206 203 200 199 199 200 201 201 201 201 202 203 204 204 205 206 208 209 208 208 207 207 207 207 207 211 213 214 213 212 213 214 215 215 214 214 215 217 219 222 225 229 233 236 240 244 247 247 245 243 242 243 245 247 249 249 248 248 248 249 250 251 250 248 245 244 243 243 244 245 246 247 248 250 254 258 260 261 263 265 270 278 285 292
209 209 208 206 204 203 203 203 202 202 202 202 202 203 203 202 203 206 209 210 211 211 212 213 213 211 211 212 214 215 214 213 213 214 217 219 218 217 218 220 222 223 223 225 230 235 242 248 253 254 252 248 246 244 243 246 247 249 249 249 248 248 249 251 251 249 248 247 245 244 243 243 244 245 246 248 253 259 264 267 270 272 277 285 292 297
Height
807 808 810 811 813 814 816 816 817 817 817 817 818 819 820 820 821 821 821 821 822 823 824 825 826 828 830 832 834 836 837 839 840 841 843 844 844 845 845 846 846 846 846 846 847 849 850 851 851 852 853 854 855 856 857 859 860 860 860 860 860 859 858 858 858 857 858 858 858 859 859 859 860 860 861 861 861 862 863 863 864 864 865 866 867 867
807 808 810 811 812 813 815 816 817 817 818 818 819 820 820 821 821 821 822 822 822 823 824 825 826 828 829 831 833 835 836 838 840 841 842 843 844 844 845 845 846 846 846 846 847 848 849 850 851 852 853 854 855 856 857 858 859 860 860 860 860 859 858 858 857 857 857 858 858 858 858 859 859 860 861 861 861 862 862 863 863 864 865 866 866 867
806 808 810 811 812 813 814 815 816 817 818 818 819 820 821 821 822 823 823 824 824 824 824 826 826 828 829 831 832 834 836 838 840 841 842 843 843 844 845 845 845 845 846 846 846 847 849 850 851 851 852 853 854 855 856 857 858 859 859 859 859 859 858 858 857 857 857 857 857 857 858 858 859 860 860 861 861 861 862 862 863 863 864 865 866 866
806 807 809 810 811 813 813 815 816 816 817 818 819 819 820 821 822 823 824 825 825 825 825 826 827 828 829 831 832 834 836 838 840 841 841 842 843 844 844 845 846 846 846 846 846 847 848 849 850 851 852 853 854 855 856 857 858 858 859 859 859 858 858 858 857 857 857 856 857 857 857 858 859 859 860 860 861 861 861 862 862 863 864 864 865 866
805 806 808 810 811 813 814 815 815 816 817 818 819 820 821 821 822 823 824 825 825 826 826 827 828 828 829 831 832 834 836 838 839 841 841 842 842 843 844 845 846 846 846 846 846 847 848 849 850 851 852 853 854 854 855 856 857 857 858 858 858 857 857 857 857 856 856 856 856 857 857 858 858 859 859 860 860 860 861 861 862 862 863 864 864 865
804 806 807 809 811 812 814 815 816 816 817 818 819 820 821 821 822 823 824 825 826 826 826 827 828 829 830 831 832 834 835 837 839 840 841 841 842 843 844 844 845 846 846 846 846 847 848 849 849 850 851 852 853 854 855 856 856 856 856 857 857 857 856 856 856 856 856 856 856 857 857 857 857 858 859 859 859 860 860 861 861 861 862 863 863 864
804 805 806 808 810 811 813 814 815 816 817 818 819 820 821 822 823 824 825 825 826 826 827 828 829 829 830 831 832 834 835 836 838 839 840 841 842 842 843 844 845 845 845 846 846 847 847 848 849 850 851 852 852 853 854 855 855 856 856 856 856 856 856 856 856 856 856 856 856 856 857 857 857 857 858 859 859 859 860 860 861 861 861 862 862 863
803 805 806 807 809 811 812 814 815 816 816 816 818 819 821 822 823 824 825 825 826 826 827 828 829 830 831 831 833 834 835 836 837 838 840 841 841 842 843 844 844 845 845 845 846 846 847 848 848 849 850 851 852 853 853 854 854 855 855 855 856 856 856 856 856 856 856 856 856 856 856 856 857 857 858 858 859 859 859 859 860 860 861 861 861 862
801 803 805 806 807 809 811 813 814 815 815 816 816 818 819 821 822 824 825 826 826 827 827 828 829 830 831 831 832 834 835 835 836 837 839 840 841 842 843 843 844 844 844 845 845 846 846 847 848 849 850 851 851 852 853 853 854 854 854 855 855 855 855 856 856 856 856 856 856 856 856 856 856 857 857 858 858 858 859 859 859 859 860 860 861 861
800 802 804 805 806 808 810 811 813 814 815 816 816 817 818 819 821 823 824 825 826 826 827 828 829 829 830 831 832 833 834 835 836 837 838 839 840 841 842 843 843 843 844 844 845 845 846 847 847 848 849 850 851 851 852 852 853 853 853 854 854 854 855 855 855 855 855 855 855 856 856 856 856 857 857 857 858 858 858 858 858 859 859 859 860 860
801 802 803 805 807 808 809 810 812 813 814 816 816 817 818 819 820 821 823 824 825 826 827 827 828 828 829 831 831 832 833 835 836 837 838 839 840 841 841 842 842 843 843 844 844 845 845 846 847 847 848 849 850 851 851 851 852 852 853 853 853 853 854 854 854 854 854 855 855 855 855 856 856 856 857 857 857 857 857 858 858 858 858 858 859 859
799 801 803 805 806 808 809 811 811 812 814 815 816 818 819 818 819 819 821 822 823 824 826 826 827 828 828 829 830 831 832 833 835 836 837 838 839 840 841 841 842 842 843 843 844 844 845 845 846 847 848 848 849 850 850 851 851 851 852 852 853 853 853 853 853 854 854 854 854 854 855 855 856 856 856 856 857 857 857 857 857 857 857 858 858 858
798 800 802 804 805 807 808 810 811 813 813 814 814 815 816 816 817 818 819 820 821 823 824 826 827 827 828 828 829 830 831 832 833 834 836 836 837 838 839 840 841 841 842 842 843 843 844 845 845 846 846 847 848 849 849 850 850 851 851 852 852 852 852 853 853 853 853 853 853 854 854 854 855 855 856 856 856 856 856 856 856 856 857 857 857 857
797 799 801 803 804 805 806 807 809 810 811 811 811 811 812 814 816 817 819 820 821 822 824 825 826 827 827 828 829 829 830 831 832 834 835 835 836 837 838 839 839 840 841 841 842 842 843 843 844 845 846 846 847 847 848 849 849 850 851 851 851 852 852 852 852 852 852 852 853 853 853 854 854 855 855 855 855 856 856 856 856 856 856 856 856 856
795 797 799 801 802 803 804 804 805 806 806 808 810 811 813 814 815 817 818 819 821 822 824 825 826 826 827 827 828 829 829 830 831 832 833 834 835 836 837 838 839 839 840 841 841 841 842 842 843 843 844 845 846 846 847 847 848 849 850 850 851 851 851 851 851 852 852 852 852 852 853 853 853 854 854 854 855 855 855 855 855 855 855 856 856 856
793 795 796 797 798 800 801 801 802 804 805 807 809 811 812 814 815 816 817 818 819 821 823 824 826 827 827 827 827 828 828 829 830 831 832 833 834 835 836 837 838 838 839 840 840 840 841 841 841 842 843 844 845 845 846 846 847 848 849 849 850 850 851 851 851 851 851 851 851 852 852 852 852 853 853 853 854 854 854 854 854 854 855 855 855 855
792 793 794 795 796 797 798 799 801 802 804 806 808 809 810 811 812 814 816 817 818 820 821 822 824 825 826 826 826 826 826 828 828 829 831 831 832 834 835 836 836 837 837 838 838 839 839 840 841 841 842 843 844 844 845 846 846 847 847 848 849 849 850 850 850 850 851 851 851 851 851 851 852 852 852 852 853 853 853 853 853 854 854 854 854 854
791 791 792 793 794 795 796 798 800 801 803 805 806 807 809 810 811 813 814 816 816 818 819 820 820 821 821 822 823 823 824 826 827 828 829 830 831 832 833 834 835 835 836 836 837 838 838 839 840 841 841 842 843 843 844 845 845 846 846 847 847 848 849 849 849 850 850 850 850 850 851 851 851 851 851 851 852 852 852 852 852 853 853 853 853 853
789 790 791 791 792 794 795 796 798 799 801 802 804 806 808 810 811 812 813 814 814 815 816 817 817 817 818 818 818 819 821 824 826 827 828 828 829 831 832 833 833 834 834 835 836 836 837 838 839 840 840 841 842 842 843 844 844 845 845 846 846 847 847 848 848 849 849 849 849 849 850 850 850 850 850 851 851 851 851 851 852 852 852 852 852 853
787 788 789 790 791 792 794 794 795 796 797 799 801 803 806 807 809 810 811 811 812 813 813 814 815 815 815 816 816 818 820 822 825 826 826 827 828 829 830 831 831 832 832 833 834 835 836 837 837 838 839 840 841 841 842 842 843 843 844 845 845 846 846 847 847 847 848 848 848 849 849 849 849 849 849 850 850 850 850 851 851 851 851 851 852 852
786 787 787 788 789 791 791 792 793 794 796 797 800 801 803 805 806 808 808 810 811 811 812 812 812 813 814 815 816 817 819 821 823 824 825 826 826 827 828 829 830 830 831 832 833 834 835 836 836 837 838 838 839 840 841 841 842 842 843 844 844 845 845 846 846 846 847 847 847 847 848 848 848 848 848 849 849 849 849 850 850 850 851 851 851 851
785 786 786 787 788 789 789 790 792 793 795 796 797 799 801 802 803 805 806 807 808 809 810 810 811 812 813 814 815 816 818 819 821 822 824 825 825 826 826 828 828 829 830 831 832 833 834 835 835 836 836 837 838 839 840 840 841 841 842 843 843 844 844 845 845 845 846 846 846 846 847 847 847 847 847 848 848 848 848 849 849 849 849 850 850 850
784 785 786 787 788 789 789 791 791 793 794 795 795 796 797 798 799 801 802 804 805 806 807 809 810 811 812 813 814 816 816 818 819 821 822 823 823 823 824 826 827 828 828 829 831 832 833 834 834 835 836 836 837 838 839 839 840 841 841 842 842 843 843 844 844 844 845 845 845 846 846 846 846 846 846 847 847 847 847 848 848 848 848 849 849 849
784 785 786 786 787 788 790 791 791 792 793 794 795 796 796 797 798 800 801 802 804 806 808 809 810 811 812 813 814 815 815 816 818 820 821 821 821 821 822 824 825 826 826 828 830 831 832 833 833 834 835 836 836 837 838 838 839 840 840 841 841 842 842 843 843 843 844 844 844 844 845 845 845 845 846 846 846 846 846 847 847 847 847 847 848 848
784 785 785 786 787 788 789 790 790 791 792 793 795 796 797 799 800 801 802 803 805 806 807 808 810 811 811 812 813 813 814 816 817 818 819 819 820 820 821 822 823 824 825 827 829 830 831 832 832 833 834 835 836 836 837 837 838 839 839 840 841 841 841 842 842 842 842 843 843 843 844 844 844 844 845 845 845 845 846 846 846 846 846 846 846 846
783 784 785 786 786 787 788 789 790 791 791 792 794 796 797 798 800 801 802 803 804 805 806 808 809 809 810 811 811 812 813 814 816 816 817 818 819 819 819 820 821 823 824 826 828 829 830 831 831 832 833 834 834 835 836 836 837 838 838 839 840 840 841 841 841 841 841 842 842 842 843 843 843 843 844 844 844 844 845 845 845 845 845 845 846 846
783 784 784 785 786 787 787 788 789 790 791 792 793 794 796 797 799 800 801 801 802 803 805 806 807 809 810 810 811 811 812 813 814 815 816 818 818 818 818 819 821 822 824 825 826 828 829 829 830 831 832 833 833 834 835 835 836 836 837 838 838 839 839 840 840 840 841 841 841 841 842 842 842 842 843 843 843 843 843 844 844 844 844 844 844 844
782 783 784 784 785 786 786 787 788 789 790 791 792 793 794 796 797 798 799 799 800 802 803 804 806 807 808 808 809 810 811 812 813 814 816 817 817 817 817 818 820 821 823 825 826 827 828 828 829 830 831 831 832 833 833 834 835 835 836 836 837 838 838 838 839 839 840 840 840 841 841 841 841 841 842 842 842 842 842 843 843 843 843 843 843 843
781 782 783 783 784 785 786 786 787 788 789 790 791 792 793 794 795 796 796 798 800 801 802 802 803 804 805 806 807 809 810 810 811 813 815 816 816 816 817 818 819 821 822 824 825 826 827 828 828 829 830 831 831 832 832 833 833 834 835 835 836 836 837 837 838 838 839 839 839 840 840 840 841 841 841 841 841 841 841 842 842 842 842 842 842 842
780 781 782 783 783 784 785 785 786 787 788 789 790 790 791 792 794 795 796 797 799 799 800 801 802 803 804 806 807 808 808 808 809 811 813 814 815 815 816 817 818 820 821 823 825 826 826 827 827 827 828 829 830 830 831 831 832 832 833 834 835 835 836 836 837 837 838 838 839 839 839 840 840 840 840 840 840 840 841 841 841 841 841 841 841 841
779 780 781 781 782 783 784 784 785 786 787 788 789 789 790 791 793 794 796 796 797 798 799 801 801 802 803 804 806 806 806 805 806 809 811 812 813 814 816 816 817 819 821 822 823 825 826 825 826 826 826 827 828 829 829 830 831 831 832 832 833 834 834 835 836 836 837 837 838 838 838 839 839 839 839 839 839 839 839 840 840 840 840 840 840 840
779 779 780 781 781 782 783 784 785 786 786 787 788 789 789 790 792 793 794 795 796 797 798 800 801 801 801 802 802 802 802 802 804 806 808 810 812 813 814 815 816 818 820 821 821 822 823 823 824 824 825 826 826 827 828 828 829 830 831 831 832 832 833 834 834 835 836 836 837 837 837 837 838 838 838 838 838 838 838 838 839 839 838 839 839 839
778 779 780 780 781 782 783 783 784 785 786 786 787 788 789 790 791 792 793 794 795 796 798 799 800 801 801 801 801 801 801 802 803 805 806 808 811 812 813 814 816 817 819 820 820 821 821 821 821 822 823 824 825 826 826 827 828 829 829 830 830 831 831 832 833 834 834 835 835 836 836 836 836 836 836 837 837 837 837 837 837 837 837 837 838 838
778 779 779 780 781 781 782 783 784 785 786 786 787 788 788 789 790 791 792 793 794 796 797 798 799 800 801 801 802 802 802 802 802 804 805 807 809 810 811 813 815 816 817 818 819 820 820 820 820 821 821 822 824 825 826 826 827 827 828 829 829 830 830 831 831 832 833 833 834 834 835 835 835 835 835 836 836 836 836 836 836 836 836 836 836 836
778 779 779 780 781 781 782 783 784 785 786 786 787 788 788 789 790 791 792 793 794 795 796 797 798 799 799 800 801 801 802 802 802 803 805 806 807 809 810 811 813 814 816 816 818 819 819 820 820 820 821 822 823 824 825 825 826 826 827 828 828 829 829 830 830 831 831 832 833 833 833 834 834 834 834 834 835 835 835 835 835 836 836 836 836 836
778 779 779 780 781 781 782 783 784 785 786 786 787 788 788 789 790 791 792 793 794 795 796 797 798 799 799 800 801 801 801 802 802 803 804 805 806 807 809 810 811 812 814 815 816 817 818 819 819 820 820 821 822 823 824 824 825 826 826 827 827 828 828 829 829 830 831 831 831 832 832 833 833 833 833 833 833 834 834 834 834 834 835 835 835 835
779 779 780 780 781 781 782 783 784 785 786 786 787 788 789 789 790 791 792 793 794 795 796 796 797 798 799 800 801 801 802 802 803 803 804 805 806 807 808 809 810 811 812 813 814 816 817 818 819 820 820 821 821 822 822 823 824 825 825 826 826 827 827 828 828 829 829 830 830 831 831 831 832 832 832 832 832 832 832 833 833 833 833 833 834 834
779 780 780 781 781 782 783 783 784 785 785 786 787 788 789 790 791 791 792 793 794 795 795 796 797 798 799 800 801 801 802 803 803 803 804 805 805 806 807 808 809 811 811 812 813 814 816 817 818 819 820 820 820 820 821 822 823 823 824 825 826 826 826 827 827 827 828 828 829 830 830 830 830 831 831 831 831 831 831 831 831 832 832 832 832 832
779 780 781 781 782 782 783 783 784 785 785 786 787 788 789 790 791 792 792 793 794 795 796 796 797 797 798 799 800 801 802 802 803 803 804 804 805 806 807 808 809 810 811 812 813 814 815 816 816 817 818 819 819 820 820 821 821 822 823 824 825 825 825 826 826 826 827 827 828 828 828 829 829 829 830 830 830 830 830 830 830 831 831 831 831 831
779 780 781 781 782 782 783 783 784 785 785 786 787 788 789 790 791 792 793 793 794 795 796 796 797 797 798 799 800 800 801 802 802 803 804 805 805 806 807 808 809 810 811 812 813 814 814 815 816 816 816 817 818 818 819 820 821 821 822 823 823 824 824 824 825 825 825 826 826 826 827 827 828 828 828 828 828 828 828 829 829 829 829 830 830 830
779 780 781 781 782 783 783 784 784 785 786 786 787 788 789 790 791 792 793 794 794 795 796 796 796 797 798 799 799 800 801 801 802 803 803 804 805 806 806 807 808 810 811 811 812 813 813 814 815 815 816 816 817 817 818 819 819 820 821 821 821 822 822 823 823 824 824 824 825 825 826 826 826 826 827 827 827 827 827 827 827 828 828 828 828 829
779 780 781 781 782 783 783 784 785 786 786 787 788 788 789 790 791 791 792 793 794 795 796 796 796 797 798 799 799 800 800 801 801 802 803 803 804 805 806 807 808 809 810 811 811 812 812 813 814 814 815 815 816 816 817 817 818 819 819 820 820 821 822 822 822 822 823 823 823 824 824 825 825 825 825 826 826 826 826 826 826 826 826 826 827 827
779 780 780 781 781 782 783 784 785 786 786 787 788 789 789 790 791 791 792 793 794 795 795 796 796 797 798 798 799 800 800 801 801 802 802 803 804 805 805 806 807 808 809 810 810 811 811 812 813 813 814 814 815 815 815 816 817 817 818 819 819 820 820 820 820 821 821 821 822 822 823 823 823 824 824 824 824 824 824 824 825 825 825 825 825 826
779 780 780 781 781 782 783 784 785 786 786 787 788 788 789 790 791 791 792 793 794 795 795 796 797 797 798 798 799 799 800 800 801 801 802 802 803 804 805 806 807 808 808 809 809 810 811 811 811 812 813 813 814 814 814 815 816 816 816 817 818 818 818 818 819 819 820 820 821 821 821 822 822 822 822 823 823 823 823 823 823 823 824 824 824 824
779 780 780 781 781 782 783 783 784 785 786 786 787 788 789 789 790 791 791 792 793 794 795 796 796 797 798 799 799 799 799 800 800 801 801 802 803 804 804 805 806 807 807 808 809 809 810 810 810 811 811 812 812 813 813 814 814 815 815 816 816 817 817 817 818 818 819 819 820 820 820 821 821 821 821 821 821 821 821 822 822 822 822 822 822 822
779 779 780 780 781 781 782 783 784 785 785 786 786 787 788 789 789 790 791 791 792 793 794 795 796 797 797 798 798 799 799 800 800 801 801 802 802 803 804 804 805 806 806 807 807 808 808 809 809 809 810 811 811 811 811 812 813 813 814 814 815 816 816 816 817 817 817 818 818 819 819 819 819 819 819 820 820 820 820 820 821 821 821 821 821 821
778 779 779 780 780 781 782 782 783 784 785 785 786 786 787 788 789 790 790 791 792 792 793 794 795 796 796 797 797 798 798 799 799 800 801 801 802 802 803 803 804 805 805 806 806 806 807 807 807 808 808 809 809 810 810 811 811 812 812 813 814 814 814 815 815 816 816 817 817 818 818 818 818 818 817 818 818 818 818 819 819 819 820 820 820 819
777 778 778 779 780 781 781 782 783 783 784 785 785 786 787 787 788 789 790 790 791 792 792 793 794 795 795 796 796 796 797 798 799 799 800 801 801 802 802 803 803 804 804 805 805 805 806 806 806 806 807 807 808 808 808 809 810 810 811 812 812 812 812 813 814 815 815 816 816 816 816 816 816 816 816 816 816 816 817 817 817 818 818 818 818 818
777 777 778 779 780 780 781 781 782 783 783 784 785 786 786 787 788 788 789 789 790 791 791 792 792 793 794 794 795 796 796 797 798 799 799 800 800 801 801 802 802 803 804 804 804 804 805 805 805 805 806 806 806 807 807 808 808 809 810 811 811 811 811 811 812 813 814 814 814 815 815 815 814 814 815 815 815 815 815 816 816 816 816 816 816 816
776 777 777 778 779 780 780 781 781 782 783 784 784 785 786 787 787 788 789 789 790 790 790 791 791 791 792 793 793 794 795 796 797 798 798 799 800 800 801 801 802 802 803 803 803 804 804 804 804 804 804 805 805 806 806 806 807 808 808 809 809 809 809 810 811 811 812 812 813 813 813 813 813 813 813 813 813 813 813 814 814 815 815 815 814 814
776 776 777 778 778 779 780 781 781 782 782 783 784 785 786 786 787 788 788 789 789 790 790 790 791 791 791 791 792 793 794 795 795 796 797 797 798 799 800 800 801 801 802 802 803 803 804 804 803 803 802 803 803 804 805 805 805 806 806 806 807 807 808 808 809 810 811 811 811 811 811 811 811 811 812 812 812 811 811 811 812 813 813 813 813 812